QPF
0.05 0.06 0.07 0.07 0.07 0.06 0.05 0.05 0.05 0.05 0.05 0.06 0.05 0.04 0.05 0.06 0.09 0.12 0.13 0.11 0.07 0.06 0.05 0.05 0.04 0.04 0.04 0.03 0.03 0.02 0.03 0.04 0.06 0.07 0.07 0.07 0.07 0.06 0.08 0.09 0.10 0.08 0.06
0.06 0.06 0.07 0.06 0.06 0.07 0.07 0.06 0.05 0.05 0.06 0.06 0.06 0.06 0.06 0.07 0.08 0.09 0.10 0.10 0.09 0.07 0.05 0.05 0.05 0.05 0.05 0.04 0.03 0.02 0.03 0.03 0.05 0.05 0.06 0.07 0.07 0.07 0.07 0.08 0.10 0.08 0.06
0.07 0.07 0.06 0.06 0.06 0.05 0.05 0.06 0.06 0.07 0.08 0.08 0.07 0.06 0.06 0.07 0.07 0.09 0.09 0.11 0.12 0.13 0.09 0.05 0.04 0.04 0.05 0.04 0.04 0.04 0.03 0.03 0.04 0.05 0.05 0.07 0.08 0.07 0.07 0.07 0.08 0.09 0.07
0.08 0.08 0.06 0.07 0.06 0.05 0.04 0.05 0.05 0.05 0.06 0.07 0.08 0.06 0.06 0.07 0.08 0.09 0.09 0.10 0.11 0.12 0.11 0.09 0.05 0.05 0.05 0.06 0.05 0.05 0.04 0.05 0.05 0.05 0.05 0.06 0.08 0.08 0.07 0.07 0.08 0.09 0.09
0.07 0.08 0.07 0.08 0.08 0.06 0.05 0.03 0.04 0.03 0.04 0.05 0.04 0.05 0.04 0.05 0.07 0.08 0.09 0.08 0.07 0.07 0.06 0.07 0.08 0.06 0.06 0.07 0.05 0.06 0.05 0.04 0.04 0.05 0.06 0.07 0.07 0.06 0.06 0.07 0.07 0.10 0.11
0.07 0.08 0.07 0.08 0.09 0.08 0.07 0.05 0.06 0.05 0.05 0.04 0.02 0.03 0.03 0.03 0.04 0.05 0.07 0.07 0.06 0.04 0.04 0.05 0.08 0.07 0.05 0.06 0.06 0.06 0.06 0.05 0.05 0.05 0.05 0.06 0.06 0.06 0.05 0.05 0.07 0.06 0.07
0.06 0.07 0.07 0.08 0.09 0.09 0.08 0.06 0.06 0.06 0.06 0.05 0.04 0.04 0.04 0.03 0.03 0.03 0.03 0.04 0.04 0.03 0.02 0.03 0.03 0.03 0.03 0.04 0.05 0.05 0.07 0.07 0.05 0.05 0.04 0.04 0.05 0.06 0.06 0.05 0.06 0.05 0.04
0.04 0.05 0.06 0.07 0.08 0.09 0.08 0.07 0.06 0.06 0.06 0.06 0.05 0.05 0.05 0.05 0.04 0.02 0.02 0.02 0.03 0.03 0.02 0.02 0.02 0.03 0.02 0.03 0.04 0.05 0.06 0.08 0.07 0.05 0.04 0.04 0.04 0.04 0.05 0.05 0.05 0.06 0.04
0.03 0.03 0.04 0.06 0.08 0.08 0.07 0.07 0.06 0.06 0.06 0.06 0.06 0.06 0.05 0.04 0.04 0.04 0.02 0.02 0.03 0.03 0.03 0.02 0.02 0.03 0.02 0.02 0.03 0.03 0.04 0.05 0.08 0.08 0.06 0.04 0.04 0.04 0.04 0.04 0.04 0.05 0.06
0.04 0.03 0.04 0.05 0.07 0.07 0.07 0.06 0.07 0.07 0.07 0.06 0.06 0.06 0.05 0.04 0.04 0.04 0.03 0.03 0.04 0.03 0.03 0.03 0.03 0.03 0.03 0.03 0.03 0.02 0.03 0.02 0.04 0.08 0.10 0.07 0.04 0.04 0.04 0.04 0.04 0.04 0.05
0.04 0.03 0.03 0.05 0.06 0.06 0.06 0.06 0.07 0.06 0.07 0.05 0.05 0.06 0.06 0.05 0.04 0.04 0.06 0.05 0.05 0.04 0.03 0.03 0.03 0.03 0.03 0.03 0.04 0.02 0.02 0.02 0.01 0.02 0.07 0.09 0.06 0.04 0.04 0.04 0.04 0.04 0.04
0.04 0.03 0.03 0.05 0.05 0.06 0.05 0.05 0.05 0.06 0.07 0.06 0.05 0.05 0.05 0.06 0.05 0.04 0.05 0.06 0.06 0.05 0.04 0.03 0.03 0.03 0.03 0.03 0.01 0.01 0.01 0.01 0.01 0.00 0.02 0.06 0.08 0.05 0.03 0.03 0.04 0.05 0.05
0.04 0.04 0.03 0.04 0.04 0.04 0.04 0.04 0.05 0.06 0.06 0.06 0.06 0.05 0.05 0.05 0.05 0.05 0.05 0.05 0.05 0.06 0.05 0.03 0.03 0.02 0.02 0.02 0.01 0.01 0.01 0.00 0.00 0.00 0.00 0.01 0.03 0.05 0.03 0.03 0.03 0.03 0.04
0.04 0.05 0.04 0.03 0.03 0.03 0.03 0.04 0.04 0.06 0.06 0.06 0.05 0.06 0.06 0.06 0.03 0.04 0.04 0.05 0.05 0.05 0.05 0.04 0.03 0.02 0.01 0.01 0.01 0.00 0.01 0.01 0.00 0.00 0.00 0.00 0.01 0.02 0.02 0.02 0.02 0.02 0.02
0.03 0.04 0.04 0.03 0.03 0.03 0.04 0.05 0.05 0.05 0.05 0.05 0.05 0.06 0.06 0.06 0.05 0.04 0.05 0.06 0.06 0.06 0.05 0.04 0.03 0.02 0.01 0.01 0.01 0.01 0.02 0.01 0.01 0.00 0.00 0.00 0.00 0.02 0.02 0.02 0.02 0.02 0.02
0.04 0.04 0.04 0.04 0.04 0.05 0.05 0.05 0.05 0.04 0.05 0.05 0.05 0.05 0.06 0.06 0.05 0.05 0.06 0.06 0.07 0.07 0.06 0.05 0.03 0.02 0.02 0.01 0.01 0.01 0.01 0.01 0.01 0.00 0.00 0.00 0.00 0.01 0.02 0.01 0.01 0.02 0.02
0.04 0.04 0.04 0.04 0.04 0.05 0.06 0.06 0.04 0.04 0.05 0.06 0.06 0.05 0.05 0.05 0.05 0.05 0.05 0.07 0.08 0.10 0.09 0.06 0.04 0.03 0.03 0.03 0.03 0.02 0.02 0.02 0.02 0.01 0.00 0.00 0.00 0.00 0.01 0.02 0.02 0.02 0.02
0.05 0.06 0.06 0.05 0.05 0.05 0.05 0.05 0.04 0.03 0.03 0.04 0.04 0.04 0.03 0.04 0.05 0.06 0.07 0.08 0.09 0.09 0.09 0.08 0.05 0.04 0.04 0.05 0.06 0.04 0.02 0.02 0.02 0.01 0.01 0.00 0.00 0.00 0.00 0.01 0.02 0.02 0.02
0.07 0.07 0.07 0.06 0.06 0.06 0.05 0.06 0.05 0.04 0.03 0.03 0.03 0.03 0.02 0.03 0.05 0.06 0.07 0.08 0.07 0.07 0.08 0.08 0.05 0.06 0.06 0.05 0.05 0.05 0.04 0.04 0.02 0.01 0.01 0.01 0.01 0.00 0.01 0.01 0.02 0.02 0.02
0.09 0.08 0.07 0.06 0.06 0.05 0.05 0.06 0.06 0.05 0.04 0.05 0.04 0.04 0.03 0.04 0.05 0.05 0.05 0.06 0.07 0.07 0.07 0.08 0.06 0.06 0.07 0.07 0.06 0.06 0.06 0.05 0.03 0.02 0.01 0.01 0.01 0.01 0.02 0.02 0.02 0.02 0.01
0.14 0.14 0.10 0.07 0.05 0.05 0.04 0.05 0.05 0.06 0.05 0.05 0.05 0.04 0.03 0.03 0.02 0.02 0.02 0.04 0.05 0.06 0.06 0.07 0.06 0.06 0.07 0.09 0.07 0.05 0.05 0.07 0.06 0.03 0.04 0.03 0.03 0.03 0.02 0.02 0.02 0.01 0.01
0.09 0.12 0.10 0.08 0.06 0.05 0.05 0.04 0.04 0.04 0.05 0.05 0.04 0.04 0.03 0.02 0.02 0.01 0.01 0.01 0.02 0.04 0.04 0.05 0.06 0.07 0.09 0.12 0.10 0.07 0.07 0.07 0.07 0.06 0.04 0.05 0.05 0.05 0.04 0.02 0.01 0.01 0.01
0.07 0.07 0.06 0.05 0.04 0.04 0.05 0.05 0.05 0.05 0.05 0.05 0.05 0.05 0.04 0.02 0.02 0.01 0.01 0.01 0.01 0.02 0.03 0.04 0.05 0.06 0.09 0.10 0.10 0.09 0.08 0.07 0.08 0.08 0.07 0.06 0.06 0.06 0.04 0.03 0.02 0.01 0.01
0.07 0.07 0.05 0.03 0.02 0.02 0.03 0.04 0.04 0.04 0.04 0.05 0.05 0.06 0.06 0.05 0.04 0.02 0.02 0.02 0.02 0.02 0.02 0.02 0.03 0.04 0.04 0.06 0.09 0.09 0.08 0.07 0.08 0.09 0.09 0.07 0.07 0.05 0.03 0.02 0.01 0.01 0.02
0.06 0.06 0.05 0.03 0.03 0.03 0.03 0.03 0.03 0.03 0.04 0.05 0.05 0.05 0.05 0.05 0.04 0.03 0.02 0.03 0.03 0.02 0.01 0.02 0.02 0.03 0.04 0.08 0.08 0.06 0.08 0.09 0.09 0.08 0.10 0.09 0.07 0.05 0.04 0.03 0.02 0.02 0.03
0.05 0.05 0.05 0.03 0.03 0.04 0.04 0.03 0.02 0.02 0.03 0.03 0.03 0.03 0.03 0.02 0.02 0.02 0.02 0.03 0.03 0.03 0.03 0.04 0.04 0.05 0.09 0.12 0.07 0.05 0.06 0.09 0.10 0.11 0.11 0.10 0.07 0.05 0.05 0.06 0.05 0.05 0.05
MSLP
1012.38 1012.53 1012.59 1012.59 1012.56 1012.53 1012.54 1012.59 1012.69 1012.81 1012.93 1013.03 1013.09 1013.12 1013.12 1013.12 1013.15 1013.22 1013.36 1013.55 1013.78 1014.05 1014.34 1014.62 1014.90 1015.17 1015.44 1015.70 1015.98 1016.27 1016.56 1016.88 1017.21 1017.56 1017.94 1018.35 1018.78 1019.22 1019.66 1020.08 1020.47 1020.82 1021.14
1012.44 1012.60 1012.67 1012.68 1012.66 1012.63 1012.62 1012.66 1012.73 1012.82 1012.93 1013.02 1013.09 1013.12 1013.12 1013.12 1013.13 1013.17 1013.27 1013.41 1013.60 1013.83 1014.08 1014.35 1014.61 1014.87 1015.12 1015.36 1015.60 1015.85 1016.10 1016.38 1016.68 1017.03 1017.42 1017.85 1018.31 1018.79 1019.26 1019.71 1020.13 1020.50 1020.83
1012.54 1012.71 1012.81 1012.85 1012.85 1012.83 1012.83 1012.85 1012.91 1012.98 1013.06 1013.13 1013.18 1013.19 1013.17 1013.14 1013.11 1013.10 1013.13 1013.21 1013.34 1013.51 1013.73 1013.96 1014.21 1014.46 1014.70 1014.92 1015.14 1015.36 1015.58 1015.83 1016.12 1016.45 1016.84 1017.28 1017.76 1018.27 1018.77 1019.25 1019.69 1020.09 1020.45
1012.63 1012.82 1012.96 1013.04 1013.08 1013.10 1013.12 1013.15 1013.19 1013.24 1013.29 1013.33 1013.34 1013.31 1013.25 1013.17 1013.08 1013.01 1012.96 1012.97 1013.02 1013.13 1013.30 1013.50 1013.72 1013.95 1014.18 1014.40 1014.61 1014.81 1015.02 1015.26 1015.53 1015.85 1016.24 1016.68 1017.16 1017.67 1018.19 1018.69 1019.16 1019.59 1019.99
1012.68 1012.90 1013.07 1013.21 1013.30 1013.37 1013.43 1013.47 1013.51 1013.54 1013.57 1013.56 1013.53 1013.46 1013.35 1013.22 1013.07 1012.92 1012.80 1012.73 1012.71 1012.75 1012.85 1013.00 1013.18 1013.39 1013.61 1013.82 1014.03 1014.23 1014.44 1014.67 1014.93 1015.25 1015.62 1016.04 1016.52 1017.02 1017.54 1018.05 1018.53 1018.99 1019.42
1012.63 1012.87 1013.10 1013.29 1013.45 1013.58 1013.68 1013.75 1013.80 1013.82 1013.82 1013.79 1013.72 1013.61 1013.46 1013.28 1013.08 1012.88 1012.69 1012.54 1012.45 1012.41 1012.44 1012.53 1012.67 1012.84 1013.04 1013.24 1013.44 1013.65 1013.86 1014.09 1014.35 1014.65 1015.00 1015.40 1015.84 1016.32 1016.82 1017.32 1017.81 1018.29 1018.76
1012.47 1012.74 1013.01 1013.26 1013.48 1013.67 1013.82 1013.92 1013.99 1014.02 1014.02 1013.97 1013.88 1013.75 1013.58 1013.38 1013.15 1012.91 1012.67 1012.47 1012.30 1012.19 1012.15 1012.16 1012.23 1012.35 1012.51 1012.69 1012.88 1013.08 1013.30 1013.53 1013.78 1014.07 1014.39 1014.75 1015.15 1015.59 1016.05 1016.53 1017.01 1017.51 1018.01
1012.20 1012.49 1012.79 1013.09 1013.37 1013.61 1013.81 1013.96 1014.06 1014.11 1014.12 1014.08 1013.99 1013.87 1013.70 1013.50 1013.27 1013.02 1012.76 1012.52 1012.30 1012.12 1011.99 1011.92 1011.91 1011.96 1012.05 1012.19 1012.36 1012.55 1012.76 1012.99 1013.23 1013.50 1013.79 1014.10 1014.45 1014.83 1015.24 1015.68 1016.15 1016.64 1017.16
1011.85 1012.16 1012.49 1012.82 1013.14 1013.42 1013.67 1013.86 1014.00 1014.08 1014.12 1014.10 1014.05 1013.96 1013.82 1013.65 1013.44 1013.20 1012.94 1012.67 1012.41 1012.17 1011.96 1011.80 1011.70 1011.66 1011.69 1011.76 1011.89 1012.05 1012.25 1012.46 1012.69 1012.92 1013.18 1013.44 1013.73 1014.04 1014.39 1014.79 1015.23 1015.72 1016.26
1011.49 1011.80 1012.13 1012.48 1012.82 1013.13 1013.41 1013.64 1013.82 1013.94 1014.02 1014.05 1014.04 1014.00 1013.91 1013.79 1013.62 1013.41 1013.16 1012.89 1012.59 1012.30 1012.02 1011.78 1011.58 1011.45 1011.39 1011.39 1011.46 1011.58 1011.75 1011.93 1012.14 1012.34 1012.55 1012.76 1012.99 1013.24 1013.53 1013.87 1014.28 1014.76 1015.30
1011.16 1011.45 1011.78 1012.12 1012.46 1012.78 1013.08 1013.34 1013.55 1013.72 1013.84 1013.92 1013.97 1013.97 1013.94 1013.86 1013.74 1013.56 1013.34 1013.07 1012.76 1012.43 1012.09 1011.78 1011.50 1011.28 1011.13 1011.06 1011.07 1011.14 1011.26 1011.41 1011.58 1011.74 1011.90 1012.06 1012.23 1012.42 1012.65 1012.94 1013.32 1013.78 1014.33
1010.87 1011.15 1011.45 1011.77 1012.09 1012.41 1012.72 1012.99 1013.23 1013.44 1013.60 1013.72 1013.80 1013.85 1013.86 1013.82 1013.74 1013.60 1013.40 1013.14 1012.82 1012.47 1012.10 1011.73 1011.39 1011.10 1010.88 1010.74 1010.68 1010.70 1010.77 1010.87 1011.00 1011.12 1011.24 1011.35 1011.46 1011.59 1011.77 1012.02 1012.37 1012.81 1013.35
1010.65 1010.90 1011.16 1011.45 1011.74 1012.04 1012.34 1012.62 1012.87 1013.10 1013.28 1013.43 1013.54 1013.61 1013.64 1013.63 1013.57 1013.45 1013.27 1013.02 1012.72 1012.37 1011.99 1011.60 1011.23 1010.89 1010.62 1010.43 1010.31 1010.27 1010.29 1010.34 1010.42 1010.50 1010.56 1010.62 1010.68 1010.77 1010.90 1011.12 1011.44 1011.86 1012.40
1010.47 1010.69 1010.91 1011.15 1011.41 1011.68 1011.96 1012.23 1012.48 1012.70 1012.89 1013.05 1013.16 1013.23 1013.26 1013.25 1013.19 1013.08 1012.92 1012.70 1012.42 1012.09 1011.72 1011.35 1010.97 1010.62 1010.33 1010.10 1009.94 1009.85 1009.82 1009.82 1009.85 1009.88 1009.89 1009.91 1009.93 1009.97 1010.07 1010.26 1010.55 1010.96 1011.49
1010.31 1010.49 1010.68 1010.87 1011.09 1011.33 1011.58 1011.82 1012.06 1012.27 1012.44 1012.58 1012.67 1012.72 1012.73 1012.70 1012.63 1012.52 1012.37 1012.17 1011.92 1011.63 1011.31 1010.97 1010.62 1010.30 1010.01 1009.77 1009.58 1009.46 1009.38 1009.34 1009.31 1009.29 1009.26 1009.23 1009.21 1009.22 1009.29 1009.45 1009.73 1010.12 1010.64
1010.15 1010.30 1010.44 1010.60 1010.78 1010.98 1011.19 1011.40 1011.61 1011.78 1011.93 1012.04 1012.10 1012.11 1012.09 1012.02 1011.93 1011.81 1011.66 1011.48 1011.27 1011.04 1010.77 1010.49 1010.20 1009.92 1009.66 1009.43 1009.24 1009.09 1008.98 1008.89 1008.82 1008.75 1008.68 1008.61 1008.56 1008.54 1008.59 1008.72 1008.97 1009.34 1009.84
1009.98 1010.10 1010.22 1010.34 1010.48 1010.63 1010.80 1010.97 1011.13 1011.28 1011.38 1011.45 1011.46 1011.44 1011.37 1011.27 1011.15 1011.01 1010.87 1010.71 1010.54 1010.36 1010.16 1009.95 1009.73 1009.51 1009.29 1009.09 1008.91 1008.75 1008.62 1008.50 1008.39 1008.28 1008.18 1008.08 1008.00 1007.95 1007.98 1008.09 1008.31 1008.65 1009.11
1009.81 1009.91 1010.00 1010.09 1010.19 1010.30 1010.42 1010.54 1010.66 1010.76 1010.82 1010.85 1010.82 1010.76 1010.65 1010.52 1010.37 1010.22 1010.06 1009.92 1009.78 1009.65 1009.51 1009.37 1009.21 1009.05 1008.89 1008.73 1008.57 1008.42 1008.28 1008.15 1008.01 1007.88 1007.75 1007.63 1007.53 1007.47 1007.47 1007.55 1007.73 1008.03 1008.45
1009.66 1009.75 1009.81 1009.86 1009.92 1009.98 1010.05 1010.13 1010.20 1010.26 1010.28 1010.27 1010.21 1010.11 1009.98 1009.81 1009.64 1009.47 1009.31 1009.17 1009.05 1008.94 1008.85 1008.75 1008.66 1008.56 1008.44 1008.33 1008.20 1008.07 1007.94 1007.81 1007.68 1007.54 1007.41 1007.28 1007.16 1007.09 1007.06 1007.11 1007.26 1007.51 1007.86
1009.54 1009.60 1009.64 1009.66 1009.68 1009.69 1009.71 1009.74 1009.76 1009.78 1009.77 1009.73 1009.65 1009.53 1009.38 1009.19 1008.99 1008.80 1008.62 1008.47 1008.34 1008.24 1008.17 1008.11 1008.05 1007.99 1007.92 1007.85 1007.76 1007.67 1007.57 1007.47 1007.35 1007.24 1007.11 1006.99 1006.88 1006.80 1006.75 1006.77 1006.87 1007.06 1007.35
1009.43 1009.48 1009.49 1009.48 1009.45 1009.42 1009.39 1009.37 1009.35 1009.33 1009.30 1009.24 1009.15 1009.02 1008.85 1008.65 1008.43 1008.21 1008.00 1007.81 1007.66 1007.55 1007.46 1007.40 1007.36 1007.33 1007.30 1007.26 1007.22 1007.18 1007.13 1007.07 1007.00 1006.92 1006.84 1006.75 1006.65 1006.58 1006.52 1006.52 1006.57 1006.69 1006.90
1009.32 1009.35 1009.34 1009.29 1009.22 1009.14 1009.07 1009.00 1008.95 1008.91 1008.86 1008.79 1008.70 1008.56 1008.38 1008.16 1007.92 1007.66 1007.41 1007.18 1006.98 1006.82 1006.70 1006.62 1006.58 1006.55 1006.55 1006.55 1006.56 1006.57 1006.58 1006.59 1006.58 1006.57 1006.54 1006.50 1006.44 1006.39 1006.34 1006.31 1006.32 1006.39 1006.53
1009.18 1009.18 1009.14 1009.06 1008.96 1008.84 1008.73 1008.64 1008.56 1008.50 1008.44 1008.37 1008.27 1008.13 1007.94 1007.70 1007.43 1007.13 1006.82 1006.53 1006.27 1006.05 1005.88 1005.76 1005.70 1005.67 1005.68 1005.71 1005.77 1005.84 1005.92 1006.00 1006.07 1006.13 1006.18 1006.20 1006.20 1006.18 1006.15 1006.12 1006.11 1006.13 1006.20
1008.96 1008.95 1008.88 1008.77 1008.64 1008.50 1008.37 1008.25 1008.16 1008.08 1008.02 1007.94 1007.84 1007.69 1007.49 1007.22 1006.91 1006.56 1006.20 1005.84 1005.51 1005.23 1005.00 1004.84 1004.74 1004.70 1004.72 1004.78 1004.87 1005.00 1005.14 1005.29 1005.44 1005.58 1005.70 1005.80 1005.87 1005.90 1005.91 1005.90 1005.88 1005.88 1005.90
1008.66 1008.62 1008.54 1008.41 1008.27 1008.11 1007.97 1007.85 1007.75 1007.67 1007.60 1007.51 1007.40 1007.23 1007.01 1006.71 1006.36 1005.95 1005.53 1005.11 1004.71 1004.37 1004.08 1003.88 1003.75 1003.70 1003.71 1003.79 1003.91 1004.07 1004.27 1004.48 1004.69 1004.91 1005.10 1005.28 1005.42 1005.52 1005.58 1005.60 1005.61 1005.60 1005.60
1008.29 1008.23 1008.12 1007.99 1007.84 1007.69 1007.55 1007.43 1007.34 1007.26 1007.18 1007.08 1006.95 1006.75 1006.49 1006.16 1005.75 1005.30 1004.82 1004.34 1003.90 1003.50 1003.18 1002.94 1002.78 1002.72 1002.73 1002.81 1002.94 1003.13 1003.35 1003.59 1003.85 1004.12 1004.37 1004.61 1004.82 1004.99 1005.11 1005.20 1005.25 1005.26 1005.27
Thickness
5739 5738 5735 5734 5732 5731 5731 5730 5729 5728 5727 5727 5728 5728 5728 5727 5725 5724 5721 5720 5719 5717 5716 5715 5714 5713 5713 5712 5712 5712 5711 5710 5710 5709 5709 5709 5709 5709 5709 5708 5708 5707 5707
5735 5734 5731 5730 5729 5728 5727 5725 5725 5724 5723 5723 5723 5723 5723 5722 5721 5719 5718 5716 5715 5713 5712 5711 5710 5709 5708 5708 5708 5708 5707 5707 5706 5706 5706 5705 5705 5705 5706 5706 5706 5705 5705
5732 5729 5727 5725 5724 5723 5722 5721 5720 5719 5719 5718 5717 5717 5717 5717 5716 5715 5713 5711 5710 5709 5708 5707 5706 5706 5705 5704 5704 5704 5704 5703 5703 5702 5702 5702 5702 5702 5703 5703 5703 5703 5702
5728 5725 5723 5721 5720 5719 5718 5716 5715 5714 5713 5712 5712 5712 5712 5712 5712 5711 5710 5708 5707 5706 5705 5704 5703 5702 5701 5700 5700 5700 5700 5699 5699 5699 5699 5699 5699 5700 5700 5700 5700 5700 5700
5724 5722 5719 5717 5716 5715 5713 5712 5710 5709 5707 5706 5706 5707 5707 5707 5707 5707 5706 5704 5704 5703 5702 5701 5699 5698 5697 5696 5696 5696 5696 5695 5695 5695 5695 5695 5696 5696 5696 5696 5696 5697 5696
5722 5719 5716 5713 5712 5710 5707 5706 5704 5703 5702 5701 5702 5702 5702 5703 5703 5702 5702 5701 5700 5700 5698 5697 5695 5694 5693 5693 5693 5692 5692 5692 5691 5691 5691 5691 5692 5692 5692 5693 5693 5693 5693
5718 5716 5713 5710 5708 5705 5703 5701 5699 5698 5696 5697 5694 5693 5696 5698 5698 5698 5697 5697 5696 5696 5694 5692 5691 5690 5689 5689 5689 5688 5688 5687 5687 5687 5687 5687 5687 5688 5688 5689 5689 5690 5690
5715 5713 5710 5706 5704 5702 5699 5697 5695 5692 5692 5692 5688 5684 5683 5685 5689 5694 5693 5692 5692 5691 5690 5689 5688 5687 5686 5685 5685 5684 5683 5683 5683 5683 5682 5683 5682 5683 5684 5685 5685 5686 5686
5712 5709 5707 5704 5701 5699 5695 5693 5690 5687 5685 5686 5685 5680 5675 5673 5678 5683 5686 5687 5686 5685 5685 5684 5683 5683 5682 5681 5680 5680 5679 5678 5678 5678 5677 5677 5678 5678 5679 5680 5681 5682 5682
5709 5707 5704 5701 5698 5695 5692 5689 5687 5685 5682 5679 5679 5680 5677 5674 5669 5670 5675 5679 5680 5680 5679 5680 5679 5678 5677 5677 5675 5675 5674 5673 5673 5672 5672 5672 5673 5673 5674 5674 5675 5676 5677
5707 5704 5701 5698 5695 5692 5688 5686 5684 5681 5679 5676 5674 5673 5672 5671 5669 5664 5663 5667 5671 5673 5674 5674 5674 5674 5673 5672 5670 5669 5669 5668 5667 5666 5666 5666 5667 5667 5668 5668 5669 5670 5671
5703 5701 5699 5695 5692 5688 5685 5682 5680 5677 5675 5673 5671 5670 5667 5664 5663 5662 5659 5660 5661 5665 5668 5669 5669 5669 5668 5667 5666 5664 5663 5663 5662 5661 5661 5661 5661 5661 5662 5662 5663 5664 5666
5699 5697 5696 5692 5688 5685 5682 5679 5677 5674 5672 5669 5667 5665 5664 5663 5662 5659 5656 5655 5656 5659 5661 5662 5664 5664 5663 5662 5660 5658 5657 5657 5656 5655 5655 5655 5655 5655 5655 5656 5657 5658 5659
5697 5695 5692 5688 5685 5682 5680 5676 5673 5671 5668 5666 5663 5661 5659 5659 5658 5656 5653 5650 5648 5650 5652 5654 5657 5658 5658 5657 5655 5653 5652 5651 5650 5649 5649 5649 5649 5649 5650 5651 5651 5652 5653
5695 5692 5688 5685 5682 5679 5676 5673 5669 5667 5664 5662 5659 5657 5655 5654 5653 5652 5650 5648 5643 5640 5642 5646 5649 5652 5652 5652 5650 5648 5647 5646 5644 5644 5643 5643 5644 5644 5645 5645 5646 5647 5647
5692 5688 5685 5681 5679 5676 5672 5669 5665 5663 5661 5658 5655 5652 5650 5649 5648 5646 5645 5644 5642 5639 5637 5641 5643 5645 5646 5646 5645 5644 5643 5641 5640 5639 5638 5638 5638 5638 5639 5640 5641 5642 5642
5688 5684 5681 5678 5674 5671 5668 5665 5662 5659 5656 5653 5652 5649 5647 5645 5643 5642 5641 5639 5638 5636 5633 5635 5638 5639 5640 5639 5639 5639 5638 5636 5634 5634 5634 5633 5633 5633 5633 5634 5635 5635 5636
5685 5682 5678 5674 5670 5668 5664 5661 5658 5655 5652 5649 5647 5645 5643 5642 5640 5639 5637 5636 5634 5633 5631 5629 5631 5632 5633 5635 5634 5634 5633 5633 5631 5630 5629 5628 5628 5627 5627 5628 5628 5629 5630
5683 5680 5676 5671 5667 5664 5661 5658 5654 5651 5648 5645 5644 5642 5640 5638 5636 5635 5633 5632 5631 5631 5629 5626 5626 5628 5629 5631 5630 5630 5629 5628 5627 5627 5625 5623 5623 5623 5622 5622 5623 5624 5625
5681 5676 5672 5668 5665 5661 5658 5654 5650 5647 5644 5642 5641 5639 5637 5635 5633 5632 5631 5629 5628 5627 5625 5624 5623 5624 5625 5626 5625 5623 5622 5622 5622 5623 5622 5621 5620 5619 5619 5619 5620 5620 5620
5678 5674 5669 5666 5663 5659 5654 5650 5647 5644 5641 5638 5637 5636 5635 5633 5631 5629 5628 5626 5625 5623 5622 5620 5619 5620 5620 5620 5619 5619 5618 5618 5619 5619 5618 5617 5617 5617 5616 5616 5616 5616 5617
5674 5670 5666 5662 5658 5655 5650 5647 5644 5641 5638 5635 5633 5633 5632 5630 5629 5627 5625 5624 5623 5621 5620 5618 5617 5617 5616 5616 5616 5615 5614 5614 5613 5618 5616 5615 5616 5615 5615 5614 5614 5614 5613
5670 5666 5662 5658 5654 5650 5647 5644 5641 5638 5635 5633 5632 5631 5630 5629 5627 5626 5624 5623 5621 5620 5619 5617 5615 5616 5615 5614 5612 5612 5611 5611 5611 5615 5614 5613 5615 5614 5614 5614 5613 5611 5610
5666 5661 5658 5655 5652 5648 5644 5641 5638 5636 5634 5633 5631 5631 5629 5627 5626 5624 5622 5620 5619 5619 5619 5617 5616 5616 5615 5613 5611 5610 5610 5611 5613 5614 5614 5611 5613 5613 5614 5611 5610 5608 5607
5662 5659 5655 5652 5649 5645 5641 5639 5636 5635 5633 5632 5631 5630 5629 5626 5624 5622 5619 5617 5616 5616 5617 5616 5615 5614 5613 5612 5610 5609 5609 5609 5609 5612 5613 5611 5612 5611 5610 5608 5606 5605 5604
5659 5656 5652 5650 5647 5643 5640 5637 5634 5633 5632 5631 5630 5629 5627 5625 5622 5619 5617 5615 5614 5614 5614 5614 5613 5614 5614 5613 5612 5610 5610 5609 5609 5610 5613 5612 5611 5609 5605 5605 5604 5601 5600